| time (UTC) | temp F | wind direction | speed MPH | gust MPH | rain 1hr in | rain 24hr in | rain mn in | humidity % | barometer mb |
| 20260506191306 | 76 | 187 | 4.0 | 10.0 | 0.00 | 0.00 | 0.00 | 100 | 1009.4 |
| 20260506190805 | 77 | 192 | 6.0 | 13.0 | 0.00 | 0.00 | 0.00 | 100 | 1009.4 |
| 20260506190304 | 76 | 189 | 1.0 | 13.0 | 0.00 | 0.00 | 0.00 | 100 | 1009.4 |
| 20260506185804 | 76 | 201 | 8.0 | 12.0 | 0.00 | 0.00 | 0.00 | 100 | 1009.4 |
| 20260506185306 | 77 | 241 | 8.0 | 12.0 | 0.00 | 0.00 | 0.00 | 100 | 1009.4 |
| 20260506184802 | 77 | 262 | 8.0 | 12.0 | 0.00 | 0.00 | 0.00 | 100 | 1009.4 |
| 20260506184302 | 76 | 227 | 3.0 | 14.0 | 0.00 | 0.00 | 0.00 | 100 | 1009.4 |
| 20260506183801 | 77 | 195 | 6.0 | 14.0 | 0.00 | 0.00 | 0.00 | 100 | 1009.4 |
| 20260506183301 | 76 | 250 | 6.0 | 12.0 | 0.00 | 0.00 | 0.00 | 100 | 1009.4 |
| 20260506182800 | 77 | 253 | 9.0 | 12.0 | 0.00 | 0.00 | 0.00 | 100 | 1009.4 |
| 20260506182516 | 75 | 70 | 1.0 | 8.0 | 0.00 | 0.00 | 0.00 | 100 | 1009.4 |
| 20260506181749 | 76 | 220 | 2.0 | 8.0 | 0.00 | 0.00 | 0.00 | 100 | 1009.4 |
| 20260506181248 | 75 | 340 | 3.0 | 13.0 | 0.00 | 0.00 | 0.00 | 100 | 1009.4 |
| 20260506180745 | 75 | 223 | 6.0 | 13.0 | 0.00 | 0.00 | 0.00 | 100 | 1009.4 |
| 20260506180505 | 75 | 209 | 6.0 | 12.0 | 0.00 | 0.00 | 0.00 | 100 | 1009.4 |
| 20260506175744 | 74 | 192 | 6.0 | 12.0 | 0.00 | 0.00 | 0.00 | 100 | 1009.4 |
| 20260506175244 | 75 | 241 | 6.0 | 12.0 | 0.00 | 0.00 | 0.00 | 100 | 1009.4 |
| 20260506174743 | 76 | 243 | 7.0 | 10.0 | 0.00 | 0.00 | 0.00 | 100 | 1009.4 |
| 20260506174243 | 74 | 189 | 0.0 | 12.0 | 0.00 | 0.00 | 0.00 | 100 | 1009.4 |
| 20260506173732 | 73 | 312 | 5.0 | 12.0 | 0.00 | 0.00 | 0.00 | 100 | 1009.4 |
| 20260506173231 | 74 | 261 | 6.0 | 11.0 | 0.00 | 0.00 | 0.00 | 100 | 1009.4 |
| 20260506172731 | 74 | 239 | 7.0 | 14.0 | 0.00 | 0.00 | 0.00 | 100 | 1009.4 |
| 20260506172230 | 74 | 234 | 8.0 | 14.0 | 0.00 | 0.00 | 0.00 | 100 | 1009.4 |
| 20260506171947 | 74 | 243 | 7.0 | 9.0 | 0.00 | 0.00 | 0.00 | 100 | 1009.4 |
| 20260506171229 | 74 | 261 | 4.0 | 9.0 | 0.00 | 0.00 | 0.00 | 100 | 1009.4 |
| 20260506170728 | 73 | 192 | 2.0 | 10.0 | 0.00 | 0.00 | 0.00 | 100 | 1009.4 |
| 20260506170218 | 73 | 281 | 7.0 | 11.0 | 0.00 | 0.00 | 0.00 | 100 | 1009.4 |
| 20260506165717 | 73 | 219 | 6.0 | 11.0 | 0.00 | 0.00 | 0.00 | 100 | 1009.4 |
| 20260506165216 | 73 | 257 | 6.0 | 8.0 | 0.00 | 0.00 | 0.00 | 100 | 1009.4 |
| 20260506164716 | 72 | 240 | 3.0 | 9.0 | 0.00 | 0.00 | 0.00 | 100 | 1009.4 |
| 20260506164215 | 72 | 241 | 6.0 | 9.0 | 0.00 | 0.00 | 0.00 | 100 | 1009.4 |
| 20260506163714 | 70 | 250 | 3.0 | 6.0 | 0.00 | 0.00 | 0.00 | 100 | 1009.4 |
| 20260506163213 | 70 | 248 | 3.0 | 8.0 | 0.00 | 0.00 | 0.00 | 100 | 1009.4 |
| 20260506162713 | 71 | 122 | 3.0 | 8.0 | 0.00 | 0.00 | 0.00 | 100 | 1009.4 |
| 20260506162212 | 71 | 244 | 4.0 | 8.0 | 0.00 | 0.00 | 0.00 | 100 | 1009.4 |
| 20260506161712 | 69 | 330 | 1.0 | 7.0 | 0.00 | 0.00 | 0.00 | 100 | 1009.4 |
| 20260506161435 | 71 | 261 | 4.0 | 7.0 | 0.00 | 0.00 | 0.00 | 100 | 1009.4 |
| 20260506160705 | 69 | 243 | 2.0 | 7.0 | 0.00 | 0.00 | 0.00 | 100 | 1009.4 |
| 20260506160204 | 68 | 199 | 2.0 | 9.0 | 0.00 | 0.00 | 0.00 | 100 | 1009.4 |
| 20260506155653 | 69 | 164 | 1.0 | 9.0 | 0.00 | 0.00 | 0.00 | 100 | 1009.4 |
| 20260506155152 | 69 | 257 | 5.0 | 9.0 | 0.00 | 0.00 | 0.00 | 100 | 1009.4 |
| 20260506154653 | 68 | 209 | 2.0 | 7.0 | 0.00 | 0.00 | 0.00 | 100 | 1009.4 |
| 20260506154149 | 68 | 270 | 2.0 | 7.0 | 0.00 | 0.00 | 0.00 | 100 | 1009.4 |
| 20260506153648 | 67 | 251 | 4.0 | 6.0 | 0.00 | 0.00 | 0.00 | 100 | 1009.4 |
| 20260506153148 | 67 | 261 | 2.0 | 7.0 | 0.00 | 0.00 | 0.00 | 100 | 1009.4 |
| 20260506152643 | 66 | 236 | 1.0 | 7.0 | 0.00 | 0.00 | 0.00 | 100 | 1009.4 |
| 20260506152143 | 67 | 226 | 4.0 | 6.0 | 0.00 | 0.00 | 0.00 | 100 | 1009.4 |
| 20260506151643 | 66 | 226 | 3.0 | 7.0 | 0.00 | 0.00 | 0.00 | 100 | 1009.4 |
| 20260506151400 | 66 | 241 | 4.0 | 7.0 | 0.00 | 0.00 | 0.00 | 100 | 1009.4 |
| 20260506150641 | 65 | 219 | 4.0 | 7.0 | 0.00 | 0.00 | 0.00 | 100 | 1009.4 |
| 20260506145639 | 65 | 262 | 3.0 | 5.0 | 0.00 | 0.00 | 0.00 | 100 | 1009.4 |
| 20260506145139 | 65 | 227 | 0.0 | 2.0 | 0.00 | 0.00 | 0.00 | 100 | 1009.4 |
| 20260506144639 | 65 | 220 | 0.0 | 0.0 | 0.00 | 0.00 | 0.00 | 100 | 1009.4 |
| 20260506144135 | 65 | 220 | 0.0 | 0.0 | 0.00 | 0.00 | 0.00 | 100 | 1009.4 |
| 20260506143631 | 63 | 220 | 0.0 | 0.0 | 0.00 | 0.00 | 0.00 | 100 | 1009.4 |
| 20260506143128 | 64 | 220 | 0.0 | 0.0 | 0.00 | 0.00 | 0.00 | 100 | 1009.4 |
| 20260506142626 | 63 | 220 | 0.0 | 0.0 | 0.00 | 0.00 | 0.00 | 100 | 1009.4 |
| 20260506142121 | 62 | 220 | 0.0 | 0.0 | 0.00 | 0.00 | 0.00 | 100 | 1009.4 |
| 20260506141604 | 62 | 220 | 0.0 | 0.0 | 0.00 | 0.00 | 0.00 | 100 | 1009.4 |
| 20260506141055 | 62 | 220 | 0.0 | 0.0 | 0.00 | 0.00 | 0.00 | 100 | 1009.4 |
| 20260506140813 | 62 | 220 | 0.0 | 0.0 | 0.00 | 0.00 | 0.00 | 100 | 1009.4 |
| 20260506140036 | 60 | 220 | 0.0 | 0.0 | 0.00 | 0.00 | 0.00 | 100 | 1009.4 |
| 20260506135526 | 60 | 220 | 0.0 | 0.0 | 0.00 | 0.00 | 0.00 | 100 | 1009.4 |
| 20260506135013 | 59 | 220 | 0.0 | 0.0 | 0.00 | 0.00 | 0.00 | 100 | 1009.4 |
| 20260506134506 | 58 | 220 | 0.0 | 0.0 | 0.00 | 0.00 | 0.00 | 100 | 1009.4 |
| 20260506134005 | 56 | 220 | 0.0 | 0.0 | 0.00 | 0.00 | 0.00 | 100 | 1009.4 |
| 20260506133501 | 54 | 220 | 0.0 | 0.0 | 0.00 | 0.00 | 0.00 | 100 | 1009.4 |
| 20260506133216 | 53 | 220 | 0.0 | 0.0 | 0.00 | 0.00 | 0.00 | 100 | 1009.4 |
| 20260506132454 | 52 | 220 | 0.0 | 0.0 | 0.00 | 0.00 | 0.00 | 100 | 1009.4 |
| 20260506131951 | 51 | 220 | 0.0 | 0.0 | 0.00 | 0.00 | 0.00 | 100 | 1009.4 |
| 20260506131439 | 49 | 220 | 0.0 | 0.0 | 0.00 | 0.00 | 0.00 | 100 | 1009.4 |
| 20260506130929 | 50 | 220 | 0.0 | 0.0 | 0.00 | 0.00 | 0.00 | 100 | 1009.4 |
| 20260506130637 | 49 | 220 | 0.0 | 0.0 | 0.00 | 0.00 | 0.00 | 100 | 1009.4 |
| 20260506125905 | 49 | 220 | 0.0 | 0.0 | 0.00 | 0.00 | 0.00 | 100 | 1009.4 |
| 20260506125359 | 50 | 220 | 0.0 | 0.0 | 0.00 | 0.00 | 0.00 | 100 | 1009.4 |
| 20260506124859 | 49 | 220 | 0.0 | 0.0 | 0.00 | 0.00 | 0.00 | 100 | 1009.4 |
| 20260506124353 | 50 | 220 | 0.0 | 0.0 | 0.00 | 0.00 | 0.00 | 100 | 1009.4 |
| 20260506124102 | 50 | 220 | 0.0 | 0.0 | 0.00 | 0.00 | 0.00 | 100 | 1009.4 |
| 20260506123337 | 49 | 220 | 0.0 | 4.0 | 0.00 | 0.00 | 0.00 | 100 | 1009.4 |
| 20260506122827 | 50 | 220 | 0.0 | 8.0 | 0.00 | 0.00 | 0.00 | 100 | 1009.4 |
| 20260506122305 | 50 | 188 | 0.0 | 8.0 | 0.00 | 0.00 | 0.00 | 100 | 1009.4 |
| 20260506122025 | 48 | 262 | 0.0 | 2.0 | 0.00 | 0.00 | 0.00 | 100 | 1009.4 |
| 20260506121252 | 49 | 338 | 0.0 | 3.0 | 0.00 | 0.00 | 0.00 | 100 | 1009.4 |
| 20260506120726 | 48 | 341 | 2.0 | 3.0 | 0.00 | 0.00 | 0.00 | 100 | 1009.4 |
| 20260506120224 | 49 | 358 | 0.0 | 1.0 | 0.00 | 0.00 | 0.00 | 100 | 1009.4 |
| 20260506115718 | 48 | 358 | 0.0 | 3.0 | 0.00 | 0.00 | 0.00 | 100 | 1009.4 |
| 20260506115213 | 47 | 358 | 0.0 | 4.0 | 0.00 | 0.00 | 0.00 | 100 | 1009.4 |
| 20260506114930 | 47 | 358 | 1.0 | 4.0 | 0.00 | 0.00 | 0.00 | 100 | 1009.4 |
| 20260506114435 | 45 | 75 | 0.0 | 0.0 | 0.00 | 0.00 | 0.00 | 100 | 1009.4 |
| 20260506113703 | 44 | 75 | 0.0 | 0.0 | 0.00 | 0.00 | 0.00 | 100 | 1009.4 |
| 20260506113137 | 44 | 75 | 0.0 | 0.0 | 0.00 | 0.00 | 0.00 | 100 | 1009.4 |
| 20260506112626 | 46 | 75 | 0.0 | 0.0 | 0.00 | 0.00 | 0.00 | 100 | 1009.4 |
| 20260506112111 | 46 | 75 | 0.0 | 0.0 | 0.00 | 0.00 | 0.00 | 100 | 1009.4 |
| 20260506111602 | 47 | 75 | 0.0 | 0.0 | 0.00 | 0.00 | 0.00 | 100 | 1009.4 |
| 20260506111051 | 47 | 75 | 0.0 | 0.0 | 0.00 | 0.00 | 0.00 | 100 | 1009.4 |
| 20260506110537 | 47 | 75 | 0.0 | 0.0 | 0.00 | 0.00 | 0.00 | 100 | 1009.4 |
| 20260506110245 | 47 | 75 | 0.0 | 0.0 | 0.00 | 0.00 | 0.00 | 100 | 1009.4 |
| 20260506105521 | 47 | 75 | 0.0 | 0.0 | 0.00 | 0.00 | 0.00 | 100 | 1009.4 |
| 20260506105021 | 47 | 75 | 0.0 | 0.0 | 0.00 | 0.00 | 0.00 | 100 | 1009.4 |
| 20260506104451 | 46 | 75 | 0.0 | 0.0 | 0.00 | 0.00 | 0.00 | 100 | 1009.4 |
| 20260506103941 | 47 | 75 | 0.0 | 0.0 | 0.00 | 0.00 | 0.00 | 100 | 1009.4 |
| 20260506102919 | 47 | 75 | 0.0 | 0.0 | 0.00 | 0.00 | 0.00 | 100 | 1009.4 |
| 20260506102352 | 48 | 75 | 0.0 | 0.0 | 0.00 | 0.00 | 0.00 | 100 | 1009.4 |
| 20260506101847 | 49 | 75 | 0.0 | 0.0 | 0.00 | 0.00 | 0.00 | 100 | 1009.4 |
| 20260506101345 | 49 | 75 | 0.0 | 0.0 | 0.00 | 0.00 | 0.00 | 100 | 1009.4 |
| 20260506100840 | 49 | 75 | 0.0 | 0.0 | 0.00 | 0.00 | 0.00 | 100 | 1009.4 |
| 20260506100337 | 51 | 75 | 0.0 | 0.0 | 0.00 | 0.00 | 0.00 | 100 | 1009.4 |
| 20260506095827 | 53 | 75 | 0.0 | 0.0 | 0.00 | 0.00 | 0.00 | 100 | 1009.4 |
| 20260506095542 | 54 | 75 | 0.0 | 0.0 | 0.00 | 0.00 | 0.00 | 100 | 1009.4 |
| 20260506094803 | 55 | 75 | 0.0 | 0.0 | 0.00 | 0.00 | 0.00 | 100 | 1009.4 |
| 20260506094250 | 55 | 75 | 0.0 | 0.0 | 0.00 | 0.00 | 0.00 | 100 | 1009.4 |
| 20260506093749 | 53 | 75 | 0.0 | 0.0 | 0.00 | 0.00 | 0.00 | 100 | 1009.4 |
| 20260506093229 | 51 | 75 | 0.0 | 0.0 | 0.00 | 0.00 | 0.00 | 100 | 1009.4 |
| 20260506092701 | 51 | 75 | 0.0 | 0.0 | 0.00 | 0.00 | 0.00 | 100 | 1009.4 |
| 20260506092151 | 50 | 75 | 0.0 | 0.0 | 0.00 | 0.00 | 0.00 | 100 | 1009.4 |
| 20260506091650 | 50 | 75 | 0.0 | 0.0 | 0.00 | 0.00 | 0.00 | 100 | 1009.4 |
| 20260506091127 | 50 | 75 | 0.0 | 0.0 | 0.00 | 0.00 | 0.00 | 100 | 1009.4 |
| 20260506090625 | 50 | 75 | 0.0 | 1.0 | 0.00 | 0.00 | 0.00 | 100 | 1009.4 |
| 20260506090120 | 50 | 75 | 0.0 | 1.0 | 0.00 | 0.00 | 0.00 | 100 | 1009.4 |
| 20260506085553 | 51 | 75 | 0.0 | 1.0 | 0.00 | 0.00 | 0.00 | 100 | 1009.4 |
| 20260506085040 | 51 | 7 | 0.0 | 0.0 | 0.00 | 0.00 | 0.00 | 100 | 1009.4 |
| 20260506084529 | 51 | 7 | 0.0 | 0.0 | 0.00 | 0.00 | 0.00 | 100 | 1009.4 |
| 20260506084019 | 51 | 7 | 0.0 | 0.0 | 0.00 | 0.00 | 0.00 | 100 | 1009.4 |
| 20260506083451 | 52 | 7 | 0.0 | 0.0 | 0.00 | 0.00 | 0.00 | 100 | 1009.4 |
| 20260506082925 | 52 | 7 | 0.0 | 2.0 | 0.00 | 0.00 | 0.00 | 100 | 1009.4 |
| 20260506082420 | 53 | 7 | 0.0 | 3.0 | 0.00 | 0.00 | 0.00 | 100 | 1009.4 |
| 20260506081918 | 53 | 7 | 0.0 | 4.0 | 0.00 | 0.00 | 0.00 | 100 | 1009.4 |
| 20260506081413 | 54 | 15 | 2.0 | 4.0 | 0.00 | 0.00 | 0.00 | 100 | 1009.4 |
| 20260506080912 | 54 | 358 | 3.0 | 4.0 | 0.00 | 0.00 | 0.00 | 100 | 1009.4 |
| 20260506080627 | 54 | 90 | 0.0 | 0.0 | 0.00 | 0.00 | 0.00 | 100 | 1009.4 |
| 20260506073302 | 56 | 90 | 0.0 | 4.0 | 0.00 | 0.00 | 0.00 | 100 | 1009.4 |
| 20260506072754 | 56 | 90 | 0.0 | 4.0 | 0.00 | 0.00 | 0.00 | 100 | 1009.4 |
| 20260506072251 | 57 | 111 | 4.0 | 5.0 | 0.00 | 0.00 | 0.00 | 100 | 1009.4 |
| 20260506071751 | 57 | 113 | 4.0 | 6.0 | 0.00 | 0.00 | 0.00 | 100 | 1009.4 |
| 20260506071250 | 57 | 99 | 4.0 | 7.0 | 0.00 | 0.00 | 0.00 | 100 | 1009.4 |
| 20260506070749 | 58 | 95 | 4.0 | 9.0 | 0.00 | 0.00 | 0.00 | 100 | 1009.4 |
| 20260506070248 | 58 | 90 | 7.0 | 9.0 | 0.00 | 0.00 | 0.00 | 100 | 1009.4 |
| 20260506061645 | 61 | 241 | 0.0 | 3.0 | 0.00 | 0.00 | 0.00 | 100 | 1009.4 |
| 20260506061117 | 61 | 241 | 0.0 | 3.0 | 0.00 | 0.00 | 0.00 | 100 | 1009.4 |
| 20260506060833 | 61 | 268 | 0.0 | 3.0 | 0.00 | 0.00 | 0.00 | 100 | 1009.4 |
| 20260506060110 | 62 | 282 | 0.0 | 5.0 | 0.00 | 0.00 | 0.00 | 100 | 1009.4 |
| 20260506051048 | 66 | 257 | 9.0 | 12.0 | 0.00 | 0.00 | 0.00 | 100 | 1009.4 |
| 20260506050809 | 66 | 265 | 9.0 | 13.0 | 0.00 | 0.00 | 0.00 | 100 | 1009.4 |
| 20260506045046 | 66 | 260 | 10.0 | 12.0 | 0.00 | 0.00 | 0.00 | 100 | 1009.4 |
| 20260506044804 | 66 | 272 | 9.0 | 12.0 | 0.00 | 0.00 | 0.00 | 100 | 1009.4 |
| 20260506044044 | 66 | 257 | 8.0 | 11.0 | 0.00 | 0.00 | 0.00 | 100 | 1009.4 |
| 20260506043543 | 66 | 265 | 7.0 | 10.0 | 0.00 | 0.00 | 0.00 | 100 | 1009.4 |
| 20260506043042 | 66 | 275 | 8.0 | 11.0 | 0.00 | 0.00 | 0.00 | 100 | 1009.4 |
| 20260506042543 | 66 | 275 | 6.0 | 11.0 | 0.00 | 0.00 | 0.00 | 100 | 1009.4 |
| 20260506042042 | 67 | 254 | 8.0 | 11.0 | 0.00 | 0.00 | 0.00 | 100 | 1009.4 |
| 20260506041541 | 67 | 258 | 7.0 | 10.0 | 0.00 | 0.00 | 0.00 | 100 | 1009.4 |
| 20260506041300 | 67 | 278 | 7.0 | 10.0 | 0.00 | 0.00 | 0.00 | 100 | 1009.4 |
| 20260506040539 | 67 | 271 | 9.0 | 11.0 | 0.00 | 0.00 | 0.00 | 100 | 1009.4 |
| 20260506040040 | 67 | 255 | 7.0 | 14.0 | 0.00 | 0.00 | 0.00 | 100 | 1009.4 |
| 20260506035539 | 67 | 261 | 9.0 | 14.0 | 0.00 | 0.00 | 0.00 | 100 | 1009.4 |
| 20260506035039 | 67 | 268 | 8.0 | 13.0 | 0.00 | 0.00 | 0.00 | 100 | 1009.4 |
| 20260506034538 | 67 | 248 | 9.0 | 15.0 | 0.00 | 0.00 | 0.00 | 100 | 1009.4 |
| 20260506034037 | 67 | 264 | 10.0 | 15.0 | 0.00 | 0.00 | 0.00 | 100 | 1009.4 |
| 20260506033754 | 67 | 268 | 9.0 | 13.0 | 0.00 | 0.00 | 0.00 | 100 | 1009.4 |
| 20260506033036 | 68 | 253 | 10.0 | 14.0 | 0.00 | 0.00 | 0.00 | 100 | 1009.4 |
| 20260506032535 | 68 | 257 | 8.0 | 14.0 | 0.00 | 0.00 | 0.00 | 100 | 1009.4 |
| 20260506032034 | 68 | 265 | 8.0 | 17.0 | 0.00 | 0.00 | 0.00 | 100 | 1009.4 |
| 20260506031534 | 68 | 250 | 9.0 | 18.0 | 0.00 | 0.00 | 0.00 | 100 | 1009.4 |
| 20260506031033 | 68 | 250 | 13.0 | 18.0 | 0.00 | 0.00 | 0.00 | 100 | 1009.4 |
| 20260506030532 | 68 | 255 | 14.0 | 17.0 | 0.00 | 0.00 | 0.00 | 100 | 1009.4 |
| 20260506030032 | 68 | 251 | 9.0 | 16.0 | 0.00 | 0.00 | 0.00 | 100 | 1009.4 |
| 20260506025532 | 68 | 253 | 12.0 | 16.0 | 0.00 | 0.00 | 0.00 | 100 | 1009.4 |
| 20260506025031 | 68 | 257 | 10.0 | 16.0 | 0.00 | 0.00 | 0.00 | 100 | 1009.4 |
| 20260506024530 | 69 | 216 | 9.0 | 16.0 | 0.00 | 0.00 | 0.00 | 100 | 1009.4 |
| 20260506024030 | 68 | 225 | 10.0 | 16.0 | 0.00 | 0.00 | 0.00 | 100 | 1009.4 |
| 20260506023529 | 69 | 248 | 10.0 | 17.0 | 0.00 | 0.00 | 0.00 | 100 | 1009.4 |
| 20260506023028 | 69 | 241 | 7.0 | 19.0 | 0.00 | 0.00 | 0.00 | 100 | 1009.4 |
| 20260506022528 | 69 | 267 | 13.0 | 19.0 | 0.00 | 0.00 | 0.00 | 100 | 1009.4 |
| 20260506022027 | 69 | 253 | 14.0 | 19.0 | 0.00 | 0.00 | 0.00 | 100 | 1009.4 |
| 20260506021748 | 70 | 247 | 13.0 | 19.0 | 0.00 | 0.00 | 0.00 | 100 | 1009.4 |
| 20260506021026 | 69 | 229 | 11.0 | 21.0 | 0.00 | 0.00 | 0.00 | 100 | 1009.4 |
| 20260506020526 | 70 | 232 | 12.0 | 21.0 | 0.00 | 0.00 | 0.00 | 100 | 1009.4 |
| 20260506020025 | 70 | 233 | 13.0 | 21.0 | 0.00 | 0.00 | 0.00 | 100 | 1009.4 |
| 20260506015525 | 70 | 260 | 13.0 | 21.0 | 0.00 | 0.00 | 0.00 | 100 | 1009.4 |
| 20260506015024 | 71 | 237 | 14.0 | 21.0 | 0.00 | 0.00 | 0.00 | 100 | 1009.4 |
| 20260506014523 | 71 | 220 | 13.0 | 18.0 | 0.00 | 0.00 | 0.00 | 100 | 1009.4 |
| 20260506014023 | 70 | 247 | 11.0 | 17.0 | 0.00 | 0.00 | 0.00 | 100 | 1009.4 |
| 20260506013522 | 71 | 244 | 11.0 | 17.0 | 0.00 | 0.00 | 0.00 | 100 | 1009.4 |
| 20260506013021 | 71 | 258 | 11.0 | 19.0 | 0.00 | 0.00 | 0.00 | 100 | 1009.4 |
| 20260506012521 | 71 | 220 | 12.0 | 19.0 | 0.00 | 0.00 | 0.00 | 100 | 1009.4 |
| 20260506012246 | 72 | 251 | 11.0 | 17.0 | 0.00 | 0.00 | 0.00 | 100 | 1009.4 |
| 20260506011740 | 72 | 237 | 10.0 | 16.0 | 0.00 | 0.00 | 0.00 | 100 | 1009.4 |
| 20260506011019 | 72 | 265 | 11.0 | 22.0 | 0.00 | 0.00 | 0.00 | 100 | 1009.4 |
| 20260506010519 | 72 | 270 | 11.0 | 22.0 | 0.00 | 0.00 | 0.00 | 100 | 1009.4 |
| 20260506010238 | 72 | 262 | 11.0 | 23.0 | 0.00 | 0.00 | 0.00 | 100 | 1009.4 |
| 20260506005517 | 72 | 246 | 15.0 | 23.0 | 0.00 | 0.00 | 0.00 | 100 | 1009.4 |
| 20260506005017 | 73 | 239 | 16.0 | 24.0 | 0.00 | 0.00 | 0.00 | 100 | 1009.4 |
| 20260506004517 | 73 | 264 | 13.0 | 24.0 | 0.00 | 0.00 | 0.00 | 100 | 1009.4 |
| 20260506004016 | 72 | 258 | 16.0 | 24.0 | 0.00 | 0.00 | 0.00 | 100 | 1009.4 |
| 20260506003515 | 72 | 262 | 12.0 | 24.0 | 0.00 | 0.00 | 0.00 | 100 | 1009.4 |
| 20260506003014 | 72 | 257 | 14.0 | 24.0 | 0.00 | 0.00 | 0.00 | 100 | 1009.4 |
| 20260506002514 | 72 | 237 | 11.0 | 18.0 | 0.00 | 0.00 | 0.00 | 100 | 1009.4 |
| 20260506002014 | 72 | 253 | 12.0 | 22.0 | 0.00 | 0.00 | 0.00 | 100 | 1009.4 |
| 20260506001739 | 73 | 234 | 11.0 | 22.0 | 0.00 | 0.00 | 0.00 | 100 | 1009.4 |
| 20260506001231 | 73 | 251 | 11.0 | 19.0 | 0.00 | 0.00 | 0.00 | 100 | 1009.4 |
| 20260506000731 | 74 | 236 | 15.0 | 22.0 | 0.00 | 0.00 | 0.00 | 100 | 1009.4 |
| 20260506000237 | 72 | 217 | 11.0 | 22.0 | 0.00 | 0.00 | 0.00 | 100 | 1009.4 |
| 20260505235510 | 72 | 272 | 15.0 | 19.0 | 0.00 | 0.00 | 0.00 | 100 | 1009.4 |
| 20260505235010 | 72 | 277 | 9.0 | 23.0 | 0.00 | 0.00 | 0.00 | 100 | 1009.4 |
| 20260505234510 | 73 | 227 | 10.0 | 23.0 | 0.00 | 0.00 | 0.00 | 100 | 1009.4 |
| 20260505234009 | 72 | 230 | 14.0 | 23.0 | 0.00 | 0.00 | 0.00 | 100 | 1009.4 |
| 20260505233508 | 72 | 257 | 10.0 | 22.0 | 0.00 | 0.00 | 0.00 | 100 | 1009.4 |
| 20260505233008 | 72 | 248 | 15.0 | 21.0 | 0.00 | 0.00 | 0.00 | 100 | 1009.4 |
| 20260505232507 | 73 | 237 | 8.0 | 21.0 | 0.00 | 0.00 | 0.00 | 100 | 1009.4 |
| 20260505232006 | 73 | 236 | 15.0 | 22.0 | 0.00 | 0.00 | 0.00 | 100 | 1009.4 |
| 20260505231506 | 73 | 216 | 9.0 | 22.0 | 0.00 | 0.00 | 0.00 | 100 | 1009.4 |
| 20260505231006 | 73 | 292 | 16.0 | 23.0 | 0.00 | 0.00 | 0.00 | 100 | 1009.4 |
| 20260505230505 | 73 | 241 | 15.0 | 23.0 | 0.00 | 0.00 | 0.00 | 100 | 1009.4 |
| 20260505230004 | 72 | 239 | 15.0 | 23.0 | 0.00 | 0.00 | 0.00 | 100 | 1009.4 |
| 20260505225727 | 73 | 208 | 11.0 | 25.0 | 0.00 | 0.00 | 0.00 | 100 | 1009.4 |
| 20260505225003 | 72 | 243 | 15.0 | 26.0 | 0.00 | 0.00 | 0.00 | 100 | 1009.4 |
| 20260505224729 | 73 | 247 | 11.0 | 26.0 | 0.00 | 0.00 | 0.00 | 100 | 1009.4 |
| 20260505224001 | 72 | 219 | 15.0 | 25.0 | 0.00 | 0.00 | 0.00 | 100 | 1009.4 |
| 20260505223729 | 73 | 223 | 14.0 | 23.0 | 0.00 | 0.00 | 0.00 | 100 | 1009.4 |
| 20260505223000 | 72 | 274 | 16.0 | 20.0 | 0.00 | 0.00 | 0.00 | 100 | 1009.4 |
| 20260505222500 | 72 | 237 | 10.0 | 24.0 | 0.00 | 0.00 | 0.00 | 100 | 1009.4 |
| 20260505221959 | 72 | 250 | 10.0 | 24.0 | 0.00 | 0.00 | 0.00 | 100 | 1009.4 |
| 20260505221459 | 72 | 251 | 11.0 | 21.0 | 0.00 | 0.00 | 0.00 | 100 | 1009.4 |
| 20260505220959 | 72 | 248 | 13.0 | 21.0 | 0.00 | 0.00 | 0.00 | 100 | 1009.4 |
| 20260505220723 | 73 | 255 | 13.0 | 21.0 | 0.00 | 0.00 | 0.00 | 100 | 1009.4 |
| 20260505215957 | 73 | 261 | 10.0 | 19.0 | 0.00 | 0.00 | 0.00 | 100 | 1009.4 |
| 20260505215456 | 72 | 239 | 14.0 | 23.0 | 0.00 | 0.00 | 0.00 | 100 | 1009.4 |
| 20260505214956 | 73 | 279 | 8.0 | 23.0 | 0.00 | 0.00 | 0.00 | 100 | 1009.4 |
| 20260505214455 | 74 | 232 | 13.0 | 24.0 | 0.00 | 0.00 | 0.00 | 100 | 1009.4 |
| 20260505213954 | 74 | 265 | 11.0 | 24.0 | 0.00 | 0.00 | 0.00 | 100 | 1009.4 |
| 20260505213454 | 74 | 246 | 4.0 | 20.0 | 0.00 | 0.00 | 0.00 | 100 | 1009.4 |
| 20260505212954 | 72 | 262 | 10.0 | 23.0 | 0.00 | 0.00 | 0.00 | 100 | 1009.4 |
| 20260505212453 | 74 | 279 | 11.0 | 23.0 | 0.00 | 0.00 | 0.00 | 100 | 1009.4 |
| 20260505211952 | 74 | 213 | 10.0 | 21.0 | 0.00 | 0.00 | 0.00 | 100 | 1009.4 |
| 20260505211451 | 74 | 201 | 15.0 | 19.0 | 0.00 | 0.00 | 0.00 | 100 | 1009.4 |
| 20260505210951 | 74 | 241 | 13.0 | 22.0 | 0.00 | 0.00 | 0.00 | 100 | 1009.4 |
| 20260505210451 | 74 | 272 | 7.0 | 22.0 | 0.00 | 0.00 | 0.00 | 100 | 1009.4 |
| 20260505210209 | 72 | 219 | 12.0 | 21.0 | 0.00 | 0.00 | 0.00 | 100 | 1009.4 |
| 20260505205449 | 73 | 254 | 12.0 | 20.0 | 0.00 | 0.00 | 0.00 | 100 | 1009.4 |
| 20260505204948 | 74 | 278 | 14.0 | 19.0 | 0.00 | 0.00 | 0.00 | 100 | 1009.4 |
| 20260505204448 | 74 | 246 | 8.0 | 20.0 | 0.00 | 0.00 | 0.00 | 100 | 1009.4 |
| 20260505204210 | 73 | 265 | 11.0 | 20.0 | 0.00 | 0.00 | 0.00 | 100 | 1009.4 |
| 20260505203447 | 73 | 261 | 9.0 | 20.0 | 0.00 | 0.00 | 0.00 | 100 | 1009.4 |
| 20260505202947 | 72 | 247 | 11.0 | 21.0 | 0.00 | 0.00 | 0.00 | 100 | 1009.4 |
| 20260505202716 | 71 | 219 | 14.0 | 21.0 | 0.00 | 0.00 | 0.00 | 100 | 1009.4 |
| 20260505201945 | 72 | 240 | 13.0 | 20.0 | 0.00 | 0.00 | 0.00 | 100 | 1009.4 |
| 20260505201444 | 71 | 278 | 11.0 | 20.0 | 0.00 | 0.00 | 0.00 | 100 | 1009.4 |
| 20260505201209 | 69 | 274 | 13.0 | 20.0 | 0.00 | 0.00 | 0.00 | 100 | 1009.4 |
| 20260505195943 | 71 | 250 | 12.0 | 22.0 | 0.00 | 0.00 | 0.00 | 100 | 1009.4 |
| 20260505195704 | 71 | 246 | 17.0 | 21.0 | 0.00 | 0.00 | 0.00 | 100 | 1009.4 |
| 20260505195207 | 71 | 258 | 11.0 | 31.0 | 0.00 | 0.00 | 0.00 | 100 | 1009.4 |
| 20260505194441 | 72 | 210 | 9.0 | 31.0 | 0.00 | 0.00 | 0.00 | 100 | 1009.4 |
| 20260505193940 | 71 | 310 | 9.0 | 24.0 | 0.00 | 0.00 | 0.00 | 100 | 1009.4 |
| 20260505193440 | 71 | 248 | 7.0 | 24.0 | 0.00 | 0.00 | 0.00 | 100 | 1009.4 |
| 20260505192939 | 71 | 278 | 18.0 | 23.0 | 0.00 | 0.00 | 0.00 | 100 | 1009.4 |
| 20260505192657 | 71 | 233 | 13.0 | 22.0 | 0.00 | 0.00 | 0.00 | 100 | 1009.4 |
| 20260505191939 | 72 | 202 | 10.0 | 22.0 | 0.00 | 0.00 | 0.00 | 100 | 1009.4 |